[[{"header":{"parameterUnit":"m.s-1","parameterCategory":1,"la1":30.2991,"la2":30.254,"lo1":-89.0895,"lo2":-89.0444,"dy":0.0017,"dx":0.0017,"nx":28,"ny":28,"refTime":"2025-05-30T03:00:00:Z","depth":0,"parameterNumber":2,"parameterNumberName":"U-component_of_WINDS"},"data":[0,0,0,0,0,0,0,0,0,0,0,0,0,0,0,0,0,0,0,0,0,0,0,0,0,0,0,0,0,0,0,0,0,0,0,0,0,0,0,0,0,0,0,0,0,0,0,0,0,0,0,0,0,0,0,0,0,0,0.169,0.1689,0,0.1587,0.1586,0.1585,0.1542,0.1542,0.1542,0.1542,0.1435,0.1432,0.1429,0,0,0,0,0,0,0,0,0,0,0,0,0,0.1848,0.1845,0.169,0.1689,0.1688,0.1587,0.1586,0.1585,0.1542,0.1542,0.1542,0.1543,0.1436,0.1432,0.1429,0,0,0,0,0,0,0,0,0,0,0,0,0,0.1766,0.1844,0.1691,0.1654,0.165,0.1588,0.1586,0.1584,0.1542,0.1542,0.1542,0.1543,0.1437,0.1433,0.1428,0.1393,0,0,0.1414,0.1412,0,0,0,0,0,0,0,0,0.177,0.176,0.1661,0.1657,0.1652,0.1578,0.1602,0.152,0.1542,0.1583,0.1542,0.1543,0.1482,0.1474,0.1454,0.1388,0.1384,0.1414,0.1411,0.1409,0.1408,0,0,0,0,0,0,0,0.1776,0.1764,0.1649,0.166,0.1654,0.1643,0.1631,0.1586,0.1532,0.1579,0.1576,0.1564,0.148,0.1458,0.1451,0.1382,0.1414,0.141,0.1407,0.1405,0.1283,0.1283,0,0,0,0,0,0,0.1788,0.1769,0.1653,0.1646,0.1713,0.164,0.1627,0.1601,0.1532,0.1522,0.1564,0.1563,0.1466,0.1456,0.1447,0.1402,0.1409,0.1405,0.1402,0.1284,0.1283,0.1283,0,0,0,0,0,0,0.1792,0.1778,0.1657,0.1707,0.1691,0.1637,0.1608,0.1599,0.1578,0.1521,0.1511,0.1553,0.1466,0.1453,0.1407,0.1397,0.1403,0.1398,0.1285,0.1284,0.1283,0.1311,0,0,0,0,0,0,0.1796,0.178,0.1766,0.1707,0.1688,0.162,0.1607,0.1597,0.157,0.1567,0.1507,0.1498,0.1465,0.1414,0.1403,0.1391,0.1395,0.1285,0.1284,0.1283,0.1311,0.1312,0.1312,0,0,0,0,0,0.1802,0.1778,0.1766,0.1752,0.167,0.1619,0.1608,0.1572,0.1569,0.1555,0.1519,0.1499,0.1401,0.141,0.1396,0.1383,0.1286,0.1284,0.1283,0.1311,0.1312,0.1312,0,0,0,0,0,0,0.1837,0.1769,0.1755,0.1711,0.1671,0.1612,0.1593,0.1574,0.1533,0.1532,0.1488,0.1475,0.1433,0.1403,0.1415,0.1346,0.1341,0.1338,0.1367,0.1367,0.1368,0.1375,0.1391,0,0,0,0,0,0.1839,0.1804,0.1747,0.1713,0.1694,0.1647,0.1623,0.1599,0.1556,0.1538,0.1498,0.1457,0.1416,0.139,0.135,0.1307,0.1293,0.1291,0.1292,0.1293,0.129,0.1265,0.1264,0.1279,0.1279,0.1279,0,0,0.1844,0.1803,0.1783,0.1719,0.1685,0.1649,0.1633,0.1595,0.1568,0.1532,0.1486,0.1456,0.1406,0.1362,0.134,0.1336,0.1283,0.1291,0.1293,0.1289,0.1264,0.1262,0.1261,0.1279,0.1279,0.1279,0,0,0.1834,0.18,0.1768,0.1735,0.1684,0.1653,0.1646,0.1589,0.1568,0.1521,0.1494,0.1461,0.1392,0.1357,0.1331,0.1309,0.129,0.1297,0.13,0.1277,0.1275,0.1274,0.1266,0.1264,0.1295,0.1295,0.1295,0,0.1846,0.1791,0.1754,0.1718,0.169,0.1658,0.1625,0.1594,0.1533,0.1514,0.1511,0.1424,0.1388,0.1336,0.1331,0.131,0.13,0.1303,0.1279,0.1277,0.1275,0.1267,0.1264,0.1296,0.1296,0.1296,0.1295,0,0.1808,0.177,0.1751,0.1693,0.1664,0.163,0.1587,0.1561,0.154,0.1509,0.1463,0.1419,0.1369,0.1355,0.1333,0.1299,0.1298,0.1287,0.1281,0.1276,0.1267,0.1264,0.1298,0.1297,0.1297,0.1296,0,0,0.1816,0.1739,0.1732,0.1706,0.1648,0.1618,0.1583,0.1535,0.1513,0.1472,0.1441,0.1384,0.1374,0.1344,0.1318,0.1298,0.1283,0.129,0.1288,0.129,0.1243,0.1251,0.1248,0.1271,0.127,0.1269,0.1247,0,0.1798,0.1733,0.1699,0.1649,0.1613,0.1582,0.1551,0.1512,0.1483,0.1448,0.1415,0.1376,0.1365,0.1347,0.1326,0.129,0.1273,0.1291,0.124,0.1239,0.1253,0.1244,0.1252,0.1233,0.1244,0.1243,0.1243,0,0.1768,0.1728,0.1675,0.1621,0.1605,0.1578,0.1531,0.1499,0.1454,0.1434,0.1401,0.1376,0.1337,0.1335,0.128,0.1293,0.1271,0.125,0.1248,0.1242,0.124,0.1236,0.1226,0.1223,0.1237,0.1238,0.1238,0,0.1779,0.1712,0.1671,0.1649,0.1586,0.1568,0.1541,0.1496,0.147,0.1429,0.1411,0.1367,0.1342,0.1308,0.1271,0.1273,0.122,0.1215,0.1202,0.1203,0.1191,0.1193,0.1177,0.1178,0.1178,0.1178,0.1178,0,0.1762,0.173,0.1675,0.165,0.1614,0.1575,0.154,0.151,0.1471,0.1439,0.1409,0.138,0.1334,0.1299,0.127,0.1229,0.1218,0.1201,0.1193,0.1203,0.1205,0.1187,0.1187,0.1177,0.1178,0.1178,0.1178,0,0.1767,0.1729,0.1683,0.1627,0.1613,0.1588,0.154,0.1514,0.1484,0.1444,0.1433,0.1385,0.1342,0.1302,0.1245,0.1226,0.1185,0.1175,0.12,0.1196,0.1185,0.1187,0.1157,0.1151,0.1157,0.1157,0.1157,0,0.1759,0.1734,0.1676,0.1653,0.1626,0.1589,0.1563,0.1524,0.1497,0.1444,0.1425,0.138,0.1342,0.1275,0.1235,0.1191,0.118,0.1173,0.1174,0.1184,0.118,0.1182,0.1179,0.1174,0.1174,0.1174,0.1174,0,0.1747,0.173,0.1693,0.1649,0.1618,0.1581,0.1544,0.1527,0.148,0.1452,0.1408,0.1379,0.1321,0.1277,0.1229,0.12,0.1179,0.1174,0.1169,0.1178,0.1194,0.1185,0.1201,0.1175,0.1175,0.1175,0.1175,0.1175,0.1745,0.1721,0.1677,0.1637,0.1605,0.157,0.1544,0.151,0.1474,0.1424,0.1403,0.1359,0.1315,0.1248,0.122,0.1184,0.118,0.1172,0.117,0.1169,0.1171,0.12,0.1176,0.1175,0.1175,0.1175,0.1175,0,0.1732,0.1702,0.1665,0.1614,0.1582,0.1567,0.1524,0.1499,0.146,0.1421,0.1385,0.1335,0.1292,0.1249,0.1204,0.1184,0.1173,0.1173,0.1174,0.1168,0.1177,0.1186,0.1183,0.1183,0.1183,0.1183,0.1183,0.1183,0.1721,0.1681,0.1658,0.1601,0.1571,0.1528,0.1506,0.1474,0.1443,0.1388,0.1353,0.1325,0.1285,0.1237,0.1197,0.1185,0.117,0.1172,0.1158,0.1168,0.1167,0.1167,0.1175,0.117,0.117,0.1152,0.1151,0.1151]},{"header":{"parameterUnit":"m.s-1","parameterCategory":1,"la1":30.2991,"la2":30.254,"lo1":-89.0895,"lo2":-89.0444,"dy":0.0017,"dx":0.0017,"nx":28,"ny":28,"refTime":"2025-05-30T03:00:00:Z","depth":0,"parameterNumber":3,"parameterNumberName":"V-component_of_WINDS"},"data":[0,0,0,0,0,0,0,0,0,0,0,0,0,0,0,0,0,0,0,0,0,0,0,0,0,0,0,0,0,0,0,0,0,0,0,0,0,0,0,0,0,0,0,0,0,0,0,0,0,0,0,0,0,0,0,0,0,0,-5.8838,-5.8841,0,-5.9095,-5.9098,-5.9101,-5.9099,-5.9096,-5.9093,-5.909,-5.9347,-5.9356,-5.9366,0,0,0,0,0,0,0,0,0,0,0,0,0,-5.8342,-5.8351,-5.8838,-5.8841,-5.8844,-5.9094,-5.9098,-5.9101,-5.91,-5.9096,-5.9092,-5.9088,-5.9343,-5.9355,-5.9367,0,0,0,0,0,0,0,0,0,0,0,0,0,-5.8574,-5.8354,-5.8837,-5.8874,-5.888,-5.9094,-5.9098,-5.9102,-5.9101,-5.9096,-5.9091,-5.9086,-5.934,-5.9354,-5.9369,-5.9562,0,0,-5.9414,-5.9421,0,0,0,0,0,0,0,0,-5.8561,-5.8592,-5.8865,-5.8872,-5.8879,-5.906,-5.9017,-5.9256,-5.9102,-5.9017,-5.9089,-5.9084,-5.9255,-5.9277,-5.9336,-5.9574,-5.9585,-5.9416,-5.9425,-5.9431,-5.9435,0,0,0,0,0,0,0,-5.8545,-5.8581,-5.8939,-5.8869,-5.8878,-5.8876,-5.8903,-5.9063,-5.9161,-5.9024,-5.9024,-5.9055,-5.9258,-5.9321,-5.9342,-5.9588,-5.9415,-5.9429,-5.9438,-5.9444,-5.9997,-6.0003,0,0,0,0,0,0,-5.8522,-5.8567,-5.8931,-5.8947,-5.8704,-5.8889,-5.892,-5.9007,-5.9159,-5.9178,-5.9059,-5.9054,-5.9298,-5.9324,-5.9351,-5.9587,-5.9431,-5.9445,-5.9454,-5.9992,-5.9999,-6.0005,0,0,0,0,0,0,-5.8511,-5.8554,-5.8921,-5.8758,-5.8804,-5.8903,-5.9001,-5.9015,-5.9078,-5.9186,-5.9203,-5.9106,-5.9295,-5.933,-5.951,-5.9596,-5.9452,-5.9465,-5.9985,-5.9994,-6.0002,-6.006,0,0,0,0,0,0,-5.8497,-5.855,-5.8626,-5.876,-5.8813,-5.9077,-5.9006,-5.9023,-5.9105,-5.9101,-5.9235,-5.9252,-5.9294,-5.9487,-5.9524,-5.9614,-5.9477,-5.9978,-5.9989,-5.9999,-6.0051,-6.007,-6.0086,0,0,0,0,0,-5.8479,-5.8631,-5.863,-5.8673,-5.891,-5.9082,-5.9113,-5.916,-5.9112,-5.9188,-5.9257,-5.9248,-5.958,-5.9506,-5.9548,-5.9642,-5.9972,-5.9986,-5.9998,-6.0043,-6.0066,-6.0085,0,0,0,0,0,0,-5.8502,-5.8649,-5.8649,-5.8849,-5.8954,-5.9082,-5.9179,-5.9182,-5.9301,-5.9292,-5.9343,-5.9374,-5.9553,-5.9616,-5.953,-5.9837,-5.977,-5.9792,-5.979,-5.9813,-5.983,-5.9811,-5.949,0,0,0,0,0,-5.8531,-5.8661,-5.8781,-5.8945,-5.8998,-5.908,-5.9157,-5.9184,-5.9293,-5.9337,-5.9419,-5.9524,-5.9653,-5.9736,-5.986,-6.006,-6.0089,-6.0146,-6.0163,-6.0177,-6.0195,-6.0305,-6.0332,-6.0047,-6.0047,-6.0047,0,0,-5.8591,-5.8687,-5.8765,-5.8953,-5.9037,-5.9169,-5.9117,-5.9258,-5.9356,-5.9358,-5.9534,-5.9598,-5.9718,-5.9909,-5.9997,-5.9967,-6.028,-6.0193,-6.0203,-6.0215,-6.0322,-6.0348,-6.0372,-6.0056,-6.0054,-6.0053,0,0,-5.8768,-5.8854,-5.9001,-5.9087,-5.9216,-5.9269,-5.9304,-5.9433,-5.9476,-5.9654,-5.9658,-5.9774,-5.9994,-6.008,-6.0152,-6.0363,-6.0359,-6.0401,-6.0492,-6.0599,-6.0622,-6.0642,-6.0717,-6.0743,-6.0419,-6.0419,-6.0419,0,-5.8826,-5.9027,-5.9075,-5.9219,-5.93,-5.931,-5.9459,-5.9539,-5.9701,-5.9756,-5.972,-5.9997,-6.0079,-6.029,-6.0341,-6.04,-6.0441,-6.0386,-6.0615,-6.0635,-6.0655,-6.0727,-6.0755,-6.0424,-6.0423,-6.0423,-6.0422,0,-5.9091,-5.923,-5.9333,-5.9492,-5.9585,-5.973,-5.98,-5.9888,-5.9907,-5.9964,-6.0144,-6.0243,-6.0387,-6.0439,-6.0458,-6.0653,-6.063,-6.0604,-6.0538,-6.0686,-6.0754,-6.0782,-6.043,-6.0428,-6.0427,-6.0426,0,0,-5.929,-5.9475,-5.9512,-5.9584,-5.9727,-5.9835,-5.9979,-6.0123,-6.0198,-6.0309,-6.0431,-6.0617,-6.0594,-6.0676,-6.0705,-6.0799,-6.0959,-6.0761,-6.0765,-6.0794,-6.118,-6.12,-6.1231,-6.0957,-6.0963,-6.0967,-6.117,0,-5.9483,-5.9742,-5.9791,-6.0016,-6.0145,-6.0156,-6.0282,-6.0383,-6.044,-6.0556,-6.0617,-6.0749,-6.0708,-6.0758,-6.0852,-6.092,-6.1037,-6.0906,-6.107,-6.1076,-6.104,-6.1267,-6.1288,-6.1475,-6.1197,-6.1202,-6.1205,0,-5.9742,-5.9862,-6.0101,-6.0228,-6.0284,-6.0396,-6.0532,-6.0643,-6.0757,-6.0791,-6.0884,-6.0902,-6.1051,-6.0978,-6.1184,-6.1094,-6.1164,-6.1207,-6.1216,-6.1233,-6.1149,-6.129,-6.1535,-6.1563,-6.1248,-6.1245,-6.1241,0,-5.9863,-6.0085,-6.0257,-6.0318,-6.047,-6.0549,-6.0615,-6.0725,-6.0808,-6.0925,-6.0979,-6.1112,-6.1184,-6.1285,-6.1338,-6.128,-6.154,-6.1472,-6.1572,-6.1571,-6.1627,-6.1622,-6.1887,-6.1671,-6.1671,-6.167,-6.167,0,-6.0073,-6.0219,-6.0313,-6.0419,-6.0582,-6.0636,-6.0795,-6.086,-6.0957,-6.1075,-6.1091,-6.1201,-6.1264,-6.1382,-6.1424,-6.1588,-6.162,-6.1652,-6.1661,-6.1651,-6.1647,-6.1697,-6.1685,-6.1678,-6.1676,-6.1675,-6.1674,0,-6.0237,-6.0306,-6.0494,-6.0623,-6.0659,-6.0773,-6.0883,-6.0985,-6.1042,-6.119,-6.1228,-6.1316,-6.1456,-6.152,-6.1691,-6.172,-6.1907,-6.1907,-6.1869,-6.1872,-6.1969,-6.196,-6.2275,-6.2319,-6.2075,-6.2077,-6.2079,0,-6.0366,-6.0479,-6.0621,-6.0702,-6.0771,-6.0901,-6.0986,-6.1043,-6.1131,-6.1269,-6.1355,-6.1496,-6.1612,-6.1834,-6.1913,-6.2044,-6.2048,-6.2149,-6.2067,-6.2053,-6.2049,-6.2042,-6.2054,-6.2164,-6.2166,-6.2168,-6.217,0,-6.0589,-6.0618,-6.0742,-6.0878,-6.098,-6.1089,-6.1196,-6.1261,-6.1334,-6.1432,-6.1576,-6.1666,-6.1843,-6.1983,-6.212,-6.2186,-6.219,-6.2195,-6.2226,-6.2216,-6.219,-6.2205,-6.191,-6.2188,-6.2186,-6.2185,-6.2184,-6.2183,-6.074,-6.0841,-6.0957,-6.1094,-6.1181,-6.1281,-6.1384,-6.1454,-6.1576,-6.1726,-6.1751,-6.1905,-6.2016,-6.22,-6.2272,-6.2392,-6.2367,-6.2411,-6.2422,-6.2432,-6.2438,-6.2171,-6.2417,-6.2416,-6.2416,-6.2415,-6.2415,0,-6.0964,-6.1039,-6.1165,-6.1315,-6.1423,-6.142,-6.1538,-6.1628,-6.1764,-6.1868,-6.1982,-6.2148,-6.2283,-6.2373,-6.2509,-6.2588,-6.2593,-6.2622,-6.2617,-6.2632,-6.2452,-6.2412,-6.2615,-6.2615,-6.2615,-6.2615,-6.2615,-6.2615,-6.1093,-6.1264,-6.1307,-6.152,-6.1594,-6.1747,-6.1815,-6.1906,-6.199,-6.2175,-6.2289,-6.2347,-6.2445,-6.2589,-6.2712,-6.2735,-6.2784,-6.2814,-6.2835,-6.2665,-6.2645,-6.2625,-6.2588,-6.2824,-6.2825,-6.3005,-6.3007,-6.3008]}]]